MMZ22C LPPT-LIRF

Flight info

Callsign MMZ22C
Flight time 2h 21m
Altitude 36000
Route ORVED1N ORVED DCT UREDI N870 PISUS/N0489F380 N870 PONEN DCT SEROX DCT VILAR DCT KARES DCT BISES DCT BCN/N0487F370 DCT DIPES/N0486F380 N725 TOSNU/N0487F370 DCT LAPIT DCT OSPOK DCT NOLVI DCT ORKUM/N0484F380 DCT ELSAG DCT ALG DCT ROMPO DCT RUXOP DCT BATOX DCT TINTO L5 VALMA VALMA3A
Aircraft L101/H-SDFGHIRWXY/S

Departure

Time 2026-05-06 07:53
Airport Lisbon Humberto Delgado Airport (LPPT)

Arrival

Time 2026-05-06 10:14
Airport Rome–Fiumicino Leonardo da Vinci International Airport (LIRF)
Time Latitude Longitude Altitude Speed Heading
2026-05-06 07:17 38.77489 -9.13164 342 ft 0 kts 78°
2026-05-06 07:40 38.77487 -9.13179 353 ft 2 kts 78°
2026-05-06 07:40 38.77483 -9.13198 348 ft 2 kts 78°
2026-05-06 07:40 38.77480 -9.13217 353 ft 2 kts 78°
2026-05-06 07:41 38.77477 -9.13237 351 ft 2 kts 81°
2026-05-06 07:41 38.77477 -9.13255 351 ft 2 kts 96°
2026-05-06 07:41 38.77480 -9.13273 352 ft 2 kts 109°
2026-05-06 07:41 38.77487 -9.13288 354 ft 2 kts 136°
2026-05-06 07:42 38.77497 -9.13297 354 ft 0 kts 160°
2026-05-06 07:47 38.77475 -9.13290 352 ft 6 kts 167°
2026-05-06 07:48 38.77424 -9.13277 347 ft 9 kts 170°
2026-05-06 07:48 38.77351 -9.13278 345 ft 11 kts 211°
2026-05-06 07:48 38.77319 -9.13366 355 ft 11 kts 255°
2026-05-06 07:48 38.77302 -9.13461 355 ft 11 kts 258°
2026-05-06 07:49 38.77286 -9.13552 357 ft 11 kts 258°
2026-05-06 07:49 38.77270 -9.13646 356 ft 11 kts 258°
2026-05-06 07:49 38.77253 -9.13751 361 ft 13 kts 258°
2026-05-06 07:49 38.77208 -9.13851 362 ft 14 kts 213°
2026-05-06 07:50 38.77107 -9.13909 364 ft 18 kts 204°
2026-05-06 07:50 38.76977 -9.13981 360 ft 23 kts 202°
2026-05-06 07:50 38.76815 -9.14069 357 ft 28 kts 203°
2026-05-06 07:50 38.76711 -9.14123 353 ft 15 kts 201°
2026-05-06 07:51 38.76647 -9.14156 357 ft 7 kts 202°
2026-05-06 07:51 38.76596 -9.14208 345 ft 12 kts 241°
2026-05-06 07:51 38.76616 -9.14323 349 ft 11 kts 296°
2026-05-06 07:51 38.76655 -9.14375 353 ft 8 kts 346°
2026-05-06 07:52 38.76692 -9.14364 352 ft 0 kts 22°
2026-05-06 07:53 38.76755 -9.14330 350 ft 35 kts 22°
2026-05-06 07:53 38.77275 -9.14048 369 ft 125 kts 24°
2026-05-06 07:53 38.78282 -9.13531 763 ft 170 kts 23°
2026-05-06 07:53 38.79416 -9.12800 1620 ft 196 kts 29°
2026-05-06 07:54 38.80646 -9.11872 2545 ft 222 kts 27°
2026-05-06 07:54 38.82081 -9.10810 3331 ft 242 kts 28°
2026-05-06 07:54 38.83541 -9.09752 4122 ft 247 kts 27°
2026-05-06 07:54 38.85074 -9.08658 4934 ft 251 kts 28°
2026-05-06 07:55 38.86594 -9.07575 5687 ft 255 kts 30°
2026-05-06 07:55 38.87943 -9.06076 6404 ft 261 kts 51°
2026-05-06 07:55 38.88859 -9.04041 7150 ft 267 kts 61°
2026-05-06 07:55 38.89739 -9.01883 7916 ft 272 kts 56°
2026-05-06 07:56 38.90796 -8.99892 8665 ft 275 kts 51°
2026-05-06 07:56 38.91935 -8.97892 9458 ft 280 kts 52°
2026-05-06 07:56 38.93002 -8.95773 10224 ft 286 kts 57°
2026-05-06 07:56 38.93967 -8.93517 10954 ft 291 kts 60°
2026-05-06 07:57 38.94876 -8.91168 11698 ft 297 kts 62°
2026-05-06 07:57 38.95814 -8.88681 12459 ft 324 kts 62°
2026-05-06 07:57 38.96858 -8.85932 12988 ft 360 kts 62°
2026-05-06 07:57 38.97991 -8.82952 13517 ft 379 kts 62°
2026-05-06 07:58 38.99147 -8.79878 14009 ft 385 kts 63°
2026-05-06 07:58 39.00308 -8.76755 14498 ft 389 kts 63°
2026-05-06 07:58 39.01480 -8.73595 14980 ft 393 kts 63°
2026-05-06 07:58 39.02660 -8.70412 15481 ft 396 kts 63°
2026-05-06 07:59 39.03854 -8.67198 15980 ft 400 kts 63°
2026-05-06 07:59 39.05059 -8.63955 16493 ft 404 kts 63°
2026-05-06 07:59 39.06274 -8.60679 17015 ft 408 kts 63°
2026-05-06 07:59 39.07496 -8.57360 17539 ft 412 kts 63°
2026-05-06 08:00 39.08722 -8.54010 18075 ft 416 kts 63°
2026-05-06 08:00 39.09959 -8.50624 18577 ft 420 kts 63°
2026-05-06 08:00 39.10934 -8.47963 18935 ft 423 kts 63°
2026-05-06 08:00 39.12197 -8.44524 19428 ft 426 kts 63°
2026-05-06 08:01 39.13471 -8.41058 19917 ft 429 kts 63°
2026-05-06 08:01 39.14752 -8.37571 20412 ft 432 kts 63°
2026-05-06 08:01 39.16041 -8.34059 20914 ft 435 kts 63°
2026-05-06 08:01 39.17340 -8.30517 21433 ft 439 kts 63°
2026-05-06 08:02 39.18649 -8.26940 21956 ft 443 kts 63°
2026-05-06 08:02 39.19969 -8.23332 22468 ft 447 kts 63°
2026-05-06 08:02 39.21298 -8.19693 23027 ft 451 kts 63°
2026-05-06 08:02 39.22638 -8.16023 23580 ft 454 kts 63°
2026-05-06 08:03 39.23988 -8.12321 24056 ft 458 kts 63°
2026-05-06 08:03 39.25348 -8.08591 24514 ft 461 kts 63°
2026-05-06 08:03 39.26715 -8.04831 25002 ft 464 kts 64°
2026-05-06 08:03 39.28022 -8.01002 25492 ft 468 kts 67°
2026-05-06 08:04 39.29192 -7.97058 25986 ft 472 kts 69°
2026-05-06 08:04 39.30293 -7.93107 26486 ft 475 kts 69°
2026-05-06 08:04 39.31443 -7.89031 27012 ft 479 kts 69°
2026-05-06 08:04 39.32599 -7.85047 27542 ft 481 kts 68°
2026-05-06 08:05 39.33789 -7.80993 28059 ft 484 kts 68°
2026-05-06 08:05 39.34983 -7.76901 28615 ft 488 kts 68°
2026-05-06 08:05 39.36173 -7.72782 29177 ft 491 kts 68°
2026-05-06 08:05 39.37369 -7.68629 29741 ft 495 kts 68°
2026-05-06 08:06 39.38687 -7.64502 30276 ft 498 kts 64°
2026-05-06 08:06 39.40214 -7.60467 30771 ft 502 kts 62°
2026-05-06 08:06 39.41814 -7.56425 31273 ft 507 kts 62°
2026-05-06 08:06 39.43400 -7.52326 31780 ft 513 kts 63°
2026-05-06 08:07 39.44972 -7.48164 32304 ft 517 kts 63°
2026-05-06 08:07 39.46557 -7.43964 32829 ft 521 kts 63°
2026-05-06 08:07 39.48160 -7.39756 33369 ft 522 kts 63°
2026-05-06 08:07 39.49772 -7.35553 33965 ft 521 kts 62°
2026-05-06 08:08 39.51387 -7.31347 34346 ft 523 kts 62°
2026-05-06 08:08 39.53008 -7.27119 34575 ft 523 kts 63°
2026-05-06 08:08 39.54619 -7.22906 34794 ft 519 kts 63°
2026-05-06 08:08 39.56203 -7.18754 34926 ft 508 kts 62°
2026-05-06 08:09 39.59331 -7.10550 35004 ft 510 kts 62°
2026-05-06 08:09 39.62466 -7.02310 35007 ft 509 kts 63°
2026-05-06 08:10 39.65591 -6.94071 35007 ft 509 kts 63°
2026-05-06 08:10 39.68714 -6.85812 35006 ft 509 kts 63°
2026-05-06 08:11 39.71826 -6.77561 35004 ft 510 kts 63°
2026-05-06 08:11 39.74947 -6.69267 35004 ft 511 kts 63°
2026-05-06 08:12 39.78061 -6.60966 35000 ft 511 kts 63°
2026-05-06 08:12 39.81169 -6.52656 34992 ft 511 kts 63°
2026-05-06 08:13 39.84273 -6.44332 34996 ft 511 kts 63°
2026-05-06 08:13 39.87272 -6.35916 35000 ft 513 kts 65°
2026-05-06 08:14 39.90022 -6.27356 34995 ft 512 kts 66°
2026-05-06 08:14 39.92820 -6.18825 34998 ft 512 kts 65°
2026-05-06 08:15 39.95658 -6.10298 34993 ft 512 kts 65°
2026-05-06 08:15 39.98004 -6.03214 34997 ft 513 kts 65°
2026-05-06 08:16 40.00835 -5.94648 34993 ft 514 kts 65°
2026-05-06 08:16 40.03664 -5.86068 34994 ft 514 kts 66°
2026-05-06 08:17 40.06484 -5.77492 34991 ft 514 kts 66°
2026-05-06 08:17 40.09298 -5.68907 34994 ft 515 kts 66°
2026-05-06 08:18 40.12117 -5.60284 35015 ft 517 kts 66°
2026-05-06 08:18 40.14931 -5.51644 34987 ft 515 kts 66°
2026-05-06 08:19 40.17729 -5.43028 35002 ft 514 kts 66°
2026-05-06 08:19 40.20521 -5.34411 35000 ft 515 kts 66°
2026-05-06 08:20 40.23306 -5.25779 34993 ft 516 kts 66°
2026-05-06 08:20 40.26099 -5.17100 34991 ft 517 kts 66°
2026-05-06 08:21 40.28865 -5.08479 35000 ft 517 kts 66°
2026-05-06 08:21 40.31644 -4.99785 34996 ft 517 kts 66°
2026-05-06 08:22 40.34415 -4.91090 34978 ft 518 kts 66°
2026-05-06 08:22 40.37194 -4.82350 34979 ft 520 kts 66°
2026-05-06 08:23 40.39973 -4.73575 34992 ft 519 kts 66°
2026-05-06 08:23 40.42725 -4.64836 34989 ft 518 kts 67°
2026-05-06 08:24 40.45374 -4.56041 34992 ft 518 kts 68°
2026-05-06 08:24 40.48052 -4.47241 34989 ft 520 kts 66°
2026-05-06 08:25 40.50794 -4.38436 34984 ft 521 kts 66°
2026-05-06 08:25 40.53532 -4.29630 34985 ft 521 kts 66°
2026-05-06 08:26 40.56266 -4.20816 34984 ft 521 kts 66°
2026-05-06 08:26 40.58996 -4.11997 34993 ft 521 kts 67°
2026-05-06 08:27 40.61723 -4.03159 34997 ft 521 kts 67°
2026-05-06 08:27 40.64439 -3.94326 35008 ft 520 kts 67°
2026-05-06 08:28 40.67133 -3.85535 35012 ft 520 kts 67°
2026-05-06 08:28 40.69836 -3.76691 35012 ft 521 kts 67°
2026-05-06 08:29 40.71184 -3.72271 35187 ft 518 kts 67°
2026-05-06 08:29 40.72526 -3.67859 35546 ft 519 kts 67°
2026-05-06 08:29 40.73868 -3.63440 35926 ft 520 kts 67°
2026-05-06 08:29 40.75215 -3.59002 36306 ft 520 kts 67°
2026-05-06 08:30 40.76556 -3.54574 36682 ft 520 kts 67°
2026-05-06 08:30 40.77900 -3.50127 36886 ft 522 kts 67°
2026-05-06 08:30 40.80585 -3.41227 36972 ft 521 kts 67°
2026-05-06 08:31 40.83281 -3.32255 36986 ft 522 kts 67°
2026-05-06 08:31 40.85731 -3.23301 36984 ft 523 kts 74°
2026-05-06 08:32 40.87500 -3.13982 36989 ft 522 kts 76°
2026-05-06 08:32 40.89310 -3.04694 36990 ft 521 kts 75°
2026-05-06 08:33 40.91164 -2.95410 36991 ft 523 kts 75°
2026-05-06 08:33 40.92991 -2.86097 36990 ft 524 kts 75°
2026-05-06 08:34 40.95722 -2.72105 36995 ft 524 kts 75°
2026-05-06 08:35 40.97535 -2.62771 36994 ft 524 kts 75°
2026-05-06 08:35 40.99316 -2.53414 37000 ft 525 kts 76°
2026-05-06 08:36 41.01071 -2.44044 37001 ft 525 kts 76°
2026-05-06 08:36 41.02748 -2.34640 36999 ft 525 kts 77°
2026-05-06 08:37 41.04543 -2.25264 36997 ft 525 kts 75°
2026-05-06 08:37 41.06384 -2.15902 37003 ft 526 kts 75°
2026-05-06 08:38 41.08162 -2.06491 37011 ft 526 kts 76°
2026-05-06 08:38 41.09910 -1.97074 37008 ft 526 kts 76°
2026-05-06 08:39 41.11657 -1.87654 37016 ft 526 kts 76°
2026-05-06 08:39 41.13402 -1.78246 37012 ft 526 kts 76°
2026-05-06 08:40 41.15150 -1.68785 37012 ft 527 kts 76°
2026-05-06 08:40 41.16886 -1.59339 37012 ft 526 kts 76°
2026-05-06 08:41 41.18614 -1.49898 37010 ft 526 kts 76°
2026-05-06 08:41 41.20324 -1.40444 37011 ft 527 kts 77°
2026-05-06 08:42 41.22093 -1.30431 37012 ft 527 kts 77°
2026-05-06 08:42 41.23685 -1.21514 37010 ft 527 kts 76°
2026-05-06 08:43 41.25372 -1.12100 37002 ft 527 kts 77°
2026-05-06 08:43 41.27062 -1.02624 37004 ft 527 kts 77°
2026-05-06 08:44 41.28747 -0.93134 37005 ft 527 kts 77°
2026-05-06 08:44 41.30424 -0.83646 37000 ft 527 kts 77°
2026-05-06 08:45 41.32093 -0.74155 36995 ft 527 kts 77°
2026-05-06 08:45 41.33757 -0.64645 37000 ft 528 kts 77°
2026-05-06 08:46 41.35105 -0.55065 36979 ft 526 kts 89°
2026-05-06 08:46 41.35081 -0.45372 36994 ft 525 kts 92°
2026-05-06 08:47 41.35138 -0.35655 36994 ft 525 kts 91°
2026-05-06 08:47 41.35162 -0.25936 36991 ft 525 kts 92°
2026-05-06 08:48 41.35096 -0.16208 36993 ft 525 kts 92°
2026-05-06 08:48 41.35019 -0.06494 36993 ft 525 kts 92°
2026-05-06 08:49 41.34933 0.03219 36985 ft 525 kts 92°
2026-05-06 08:49 41.34834 0.12927 36988 ft 525 kts 92°
2026-05-06 08:50 41.34722 0.22632 36969 ft 524 kts 93°
2026-05-06 08:50 41.34560 0.32340 36984 ft 524 kts 93°
2026-05-06 08:51 41.34399 0.42039 36984 ft 524 kts 93°
2026-05-06 08:51 41.34260 0.51744 36988 ft 524 kts 93°
2026-05-06 08:52 41.34109 0.61428 36984 ft 524 kts 94°
2026-05-06 08:52 41.33934 0.71129 36984 ft 524 kts 94°
2026-05-06 08:53 41.33768 0.80820 36975 ft 524 kts 94°
2026-05-06 08:53 41.33602 0.90524 36973 ft 524 kts 94°
2026-05-06 08:54 41.33428 1.00228 36959 ft 525 kts 94°
2026-05-06 08:54 41.33246 1.09935 36972 ft 524 kts 94°
2026-05-06 08:55 41.33047 1.19636 36967 ft 525 kts 94°
2026-05-06 08:55 41.32809 1.29343 36966 ft 525 kts 94°
2026-05-06 08:56 41.32585 1.39053 36957 ft 525 kts 94°
2026-05-06 08:56 41.32369 1.48765 36967 ft 525 kts 94°
2026-05-06 08:57 41.32145 1.58481 36967 ft 525 kts 94°
2026-05-06 08:57 41.31953 1.66550 36981 ft 526 kts 94°
2026-05-06 08:58 41.31693 1.76261 36986 ft 525 kts 95°
2026-05-06 08:58 41.31369 1.87553 36987 ft 525 kts 95°
2026-05-06 08:59 41.31150 1.95692 36984 ft 525 kts 95°
2026-05-06 08:59 41.30885 2.05398 36982 ft 524 kts 96°
2026-05-06 09:00 41.29857 2.14920 36988 ft 518 kts 107°
2026-05-06 09:00 41.28329 2.24233 36983 ft 520 kts 105°
2026-05-06 09:01 41.26898 2.33654 36978 ft 519 kts 106°
2026-05-06 09:01 41.25382 2.43029 36979 ft 518 kts 107°
2026-05-06 09:02 41.23830 2.52399 36968 ft 518 kts 107°
2026-05-06 09:02 41.22276 2.61745 36969 ft 518 kts 107°
2026-05-06 09:03 41.20709 2.71098 36955 ft 518 kts 107°
2026-05-06 09:03 41.19139 2.80418 36962 ft 517 kts 107°
2026-05-06 09:04 41.17558 2.89745 36962 ft 517 kts 107°
2026-05-06 09:04 41.15971 2.99061 36965 ft 517 kts 107°
2026-05-06 09:05 41.14379 3.08357 36962 ft 517 kts 108°
2026-05-06 09:05 41.12783 3.17638 36967 ft 516 kts 108°
2026-05-06 09:06 41.11179 3.26905 36967 ft 516 kts 108°
2026-05-06 09:06 41.09567 3.36173 36966 ft 515 kts 108°
2026-05-06 09:07 41.07947 3.45437 36928 ft 515 kts 108°
2026-05-06 09:07 41.06271 3.54592 36970 ft 514 kts 110°
2026-05-06 09:08 41.04519 3.63783 36967 ft 515 kts 108°
2026-05-06 09:08 41.02901 3.73019 36973 ft 515 kts 108°
2026-05-06 09:09 41.01256 3.82241 36950 ft 514 kts 108°
2026-05-06 09:09 40.99581 3.91452 36964 ft 514 kts 108°
2026-05-06 09:10 40.97907 4.00662 36966 ft 514 kts 108°
2026-05-06 09:10 40.96243 4.09834 36966 ft 514 kts 108°
2026-05-06 09:11 40.94568 4.19019 36963 ft 514 kts 108°
2026-05-06 09:11 40.92884 4.28214 36968 ft 513 kts 109°
2026-05-06 09:12 40.91196 4.37387 36973 ft 513 kts 109°
2026-05-06 09:12 40.89500 4.46543 36969 ft 512 kts 109°
2026-05-06 09:13 40.87778 4.55617 36965 ft 512 kts 109°
2026-05-06 09:13 40.86089 4.64767 36956 ft 514 kts 106°
2026-05-06 09:14 40.85097 4.74179 36965 ft 517 kts 101°
2026-05-06 09:14 40.84213 4.83602 36965 ft 516 kts 102°
2026-05-06 09:15 40.83286 4.93014 36967 ft 517 kts 101°
2026-05-06 09:15 40.82408 5.02371 36965 ft 517 kts 101°
2026-05-06 09:16 40.81522 5.11783 36967 ft 516 kts 101°
2026-05-06 09:16 40.80630 5.21188 36968 ft 516 kts 101°
2026-05-06 09:17 40.79726 5.30653 36966 ft 516 kts 101°
2026-05-06 09:17 40.78825 5.40015 36963 ft 515 kts 101°
2026-05-06 09:18 40.77915 5.49384 36954 ft 514 kts 101°
2026-05-06 09:18 40.77000 5.58728 36961 ft 513 kts 101°
2026-05-06 09:19 40.76079 5.68053 36977 ft 512 kts 101°
2026-05-06 09:19 40.75150 5.77368 36966 ft 512 kts 101°
2026-05-06 09:20 40.74217 5.86665 36966 ft 511 kts 101°
2026-05-06 09:20 40.73274 5.95962 36965 ft 511 kts 102°
2026-05-06 09:21 40.72269 6.05232 36965 ft 511 kts 102°
2026-05-06 09:21 40.71236 6.14497 36959 ft 510 kts 102°
2026-05-06 09:22 40.70257 6.23763 36964 ft 510 kts 102°
2026-05-06 09:22 40.69283 6.33010 36965 ft 509 kts 102°
2026-05-06 09:23 40.68302 6.42261 36967 ft 509 kts 102°
2026-05-06 09:23 40.67317 6.51511 36962 ft 509 kts 102°
2026-05-06 09:24 40.66326 6.60744 36966 ft 508 kts 102°
2026-05-06 09:24 40.65331 6.69951 36966 ft 508 kts 102°
2026-05-06 09:25 40.64327 6.79168 36974 ft 508 kts 102°
2026-05-06 09:25 40.63316 6.88377 36958 ft 508 kts 102°
2026-05-06 09:26 40.62296 6.97606 36961 ft 510 kts 102°
2026-05-06 09:26 40.61267 7.06842 36965 ft 510 kts 103°
2026-05-06 09:27 40.60232 7.16069 36969 ft 510 kts 103°
2026-05-06 09:27 40.59195 7.25240 36967 ft 510 kts 103°
2026-05-06 09:28 40.58147 7.34447 37136 ft 507 kts 103°
2026-05-06 09:28 40.57622 7.39029 37417 ft 507 kts 103°
2026-05-06 09:28 40.57104 7.43622 37685 ft 509 kts 100°
2026-05-06 09:28 40.56952 7.48360 37842 ft 515 kts 89°
2026-05-06 09:29 40.57260 7.52994 37958 ft 516 kts 86°
2026-05-06 09:29 40.57911 7.62403 37965 ft 516 kts 88°
2026-05-06 09:30 40.58524 7.71820 37971 ft 516 kts 87°
2026-05-06 09:30 40.59289 7.81213 37978 ft 516 kts 86°
2026-05-06 09:31 40.60079 7.90606 37972 ft 517 kts 86°
2026-05-06 09:31 40.60866 8.00011 37957 ft 516 kts 86°
2026-05-06 09:32 40.61627 8.09397 37957 ft 516 kts 86°
2026-05-06 09:32 40.62384 8.18780 37968 ft 515 kts 85°
2026-05-06 09:32 40.63112 8.23414 37917 ft 518 kts 72°
2026-05-06 09:33 40.64411 8.27815 37964 ft 516 kts 68°
2026-05-06 09:33 40.67070 8.36646 37947 ft 519 kts 71°
2026-05-06 09:34 40.69614 8.45549 37968 ft 519 kts 70°
2026-05-06 09:34 40.72331 8.54355 37982 ft 519 kts 69°
2026-05-06 09:35 40.75082 8.63150 37978 ft 519 kts 69°
2026-05-06 09:35 40.77829 8.71952 37955 ft 519 kts 69°
2026-05-06 09:36 40.80578 8.80761 37987 ft 518 kts 69°
2026-05-06 09:36 40.83312 8.89546 37976 ft 517 kts 69°
2026-05-06 09:37 40.86042 8.98341 37972 ft 517 kts 69°
2026-05-06 09:37 40.88764 9.07141 37969 ft 517 kts 69°
2026-05-06 09:38 40.91477 9.15942 37961 ft 518 kts 69°
2026-05-06 09:38 40.93733 9.23278 37963 ft 518 kts 69°
2026-05-06 09:39 40.96441 9.32113 37967 ft 518 kts 69°
2026-05-06 09:39 40.99144 9.40964 37964 ft 518 kts 69°
2026-05-06 09:40 41.01837 9.49809 37943 ft 517 kts 69°
2026-05-06 09:40 41.05842 9.63017 37953 ft 514 kts 70°
2026-05-06 09:41 41.08495 9.71806 37954 ft 513 kts 70°
2026-05-06 09:41 41.11104 9.80611 37951 ft 513 kts 71°
2026-05-06 09:42 41.13611 9.89456 37961 ft 512 kts 71°
2026-05-06 09:42 41.16175 9.98282 37972 ft 512 kts 69°
2026-05-06 09:43 41.18888 10.07017 37976 ft 512 kts 70°
2026-05-06 09:43 41.21475 10.15812 37977 ft 512 kts 70°
2026-05-06 09:44 41.24074 10.24616 37964 ft 512 kts 70°
2026-05-06 09:44 41.26663 10.33420 37968 ft 512 kts 70°
2026-05-06 09:45 41.29245 10.42235 37970 ft 512 kts 71°
2026-05-06 09:45 41.31818 10.51056 37982 ft 511 kts 71°
2026-05-06 09:46 41.34382 10.59881 37974 ft 511 kts 71°
2026-05-06 09:46 41.36937 10.68717 37973 ft 512 kts 71°
2026-05-06 09:47 41.39488 10.77579 37974 ft 513 kts 71°
2026-05-06 09:47 41.42034 10.86461 37977 ft 513 kts 71°
2026-05-06 09:48 41.44565 10.95341 37981 ft 513 kts 71°
2026-05-06 09:48 41.47085 11.04232 37978 ft 513 kts 71°
2026-05-06 09:49 41.48343 11.08692 37742 ft 517 kts 71°
2026-05-06 09:49 41.49609 11.13176 37070 ft 513 kts 71°
2026-05-06 09:49 41.50839 11.17533 36400 ft 506 kts 71°
2026-05-06 09:49 41.52092 11.21971 35753 ft 504 kts 71°
2026-05-06 09:50 41.53327 11.26360 35123 ft 506 kts 71°
2026-05-06 09:50 41.54553 11.30728 34507 ft 511 kts 71°
2026-05-06 09:50 41.55819 11.35243 33879 ft 515 kts 70°
2026-05-06 09:50 41.57060 11.39665 33206 ft 518 kts 70°
2026-05-06 09:51 41.58332 11.44179 32537 ft 520 kts 70°
2026-05-06 09:51 41.59613 11.48719 31887 ft 522 kts 70°
2026-05-06 09:51 41.60892 11.53265 31248 ft 523 kts 70°
2026-05-06 09:51 41.62171 11.57820 30641 ft 524 kts 70°
2026-05-06 09:52 41.63439 11.62325 29821 ft 515 kts 70°
2026-05-06 09:52 41.64709 11.66843 28569 ft 520 kts 70°
2026-05-06 09:52 41.65969 11.71326 27058 ft 510 kts 70°
2026-05-06 09:52 41.67186 11.75659 25530 ft 483 kts 70°
2026-05-06 09:53 41.68333 11.79743 24116 ft 456 kts 70°
2026-05-06 09:53 41.69418 11.83619 22594 ft 434 kts 70°
2026-05-06 09:53 41.70448 11.87323 21031 ft 415 kts 70°
2026-05-06 09:53 41.71448 11.90850 19536 ft 397 kts 66°
2026-05-06 09:54 41.72856 11.93934 18037 ft 383 kts 46°
2026-05-06 09:54 41.74880 11.96106 16476 ft 366 kts 25°
2026-05-06 09:54 41.77169 11.97392 15119 ft 348 kts 12°
2026-05-06 09:54 41.79476 11.98029 14577 ft 332 kts
2026-05-06 09:55 41.81733 11.98241 14170 ft 321 kts 355°
2026-05-06 09:55 41.83949 11.98112 13725 ft 317 kts 349°
2026-05-06 09:55 41.86124 11.97705 13280 ft 313 kts 344°
2026-05-06 09:55 41.88231 11.97108 13097 ft 308 kts 341°
2026-05-06 09:56 41.90305 11.96404 13012 ft 307 kts 340°
2026-05-06 09:56 41.92370 11.95639 12982 ft 308 kts 339°
2026-05-06 09:56 41.94444 11.94831 12596 ft 314 kts 338°
2026-05-06 09:56 41.96541 11.93986 11867 ft 313 kts 338°
2026-05-06 09:57 41.98624 11.93130 11110 ft 313 kts 338°
2026-05-06 09:57 42.00705 11.92265 10386 ft 312 kts 337°
2026-05-06 09:57 42.02772 11.91398 9653 ft 310 kts 337°
2026-05-06 09:57 42.04821 11.90534 9069 ft 304 kts 337°
2026-05-06 09:58 42.06772 11.89719 8966 ft 283 kts 337°
2026-05-06 09:58 42.08574 11.88972 8976 ft 260 kts 336°
2026-05-06 09:58 42.10265 11.88259 8987 ft 251 kts 335°
2026-05-06 09:58 42.11919 11.87538 9028 ft 255 kts 335°
2026-05-06 09:59 42.13612 11.86792 9027 ft 257 kts 335°
2026-05-06 09:59 42.15336 11.86041 8992 ft 257 kts 335°
2026-05-06 09:59 42.17043 11.85306 8983 ft 258 kts 335°
2026-05-06 09:59 42.18750 11.84573 8988 ft 257 kts 336°
2026-05-06 10:00 42.20432 11.83855 8985 ft 257 kts 336°
2026-05-06 10:00 42.22139 11.83126 8985 ft 257 kts 335°
2026-05-06 10:00 42.23843 11.82397 8989 ft 257 kts 336°
2026-05-06 10:00 42.25571 11.81659 8986 ft 257 kts 336°
2026-05-06 10:01 42.27274 11.80931 8714 ft 261 kts 340°
2026-05-06 10:01 42.29118 11.80764 8237 ft 274 kts
2026-05-06 10:01 42.30896 11.81715 7792 ft 279 kts 33°
2026-05-06 10:01 42.32166 11.83575 7561 ft 269 kts 57°
2026-05-06 10:02 42.32990 11.85832 7180 ft 264 kts 68°
2026-05-06 10:02 42.33629 11.88104 6781 ft 253 kts 72°
2026-05-06 10:02 42.34077 11.90343 6367 ft 242 kts 90°
2026-05-06 10:02 42.34027 11.92540 6225 ft 229 kts 104°
2026-05-06 10:03 42.33544 11.94563 6450 ft 225 kts 120°
2026-05-06 10:03 42.32729 11.96407 6599 ft 231 kts 131°
2026-05-06 10:03 42.31689 11.98055 6467 ft 229 kts 141°
2026-05-06 10:03 42.30512 11.99467 6230 ft 224 kts 148°
2026-05-06 10:04 42.29259 12.00664 5968 ft 218 kts 153°
2026-05-06 10:04 42.27965 12.01688 5721 ft 213 kts 157°
2026-05-06 10:04 42.26651 12.02584 5469 ft 210 kts 160°
2026-05-06 10:04 42.25331 12.03384 5222 ft 207 kts 162°
2026-05-06 10:05 42.24008 12.04117 4971 ft 205 kts 163°
2026-05-06 10:05 42.22688 12.04800 4707 ft 201 kts 165°
2026-05-06 10:05 42.21387 12.05440 4449 ft 198 kts 165°
2026-05-06 10:05 42.20099 12.06058 4204 ft 194 kts 162°
2026-05-06 10:06 42.19001 12.07180 4033 ft 204 kts 137°
2026-05-06 10:06 42.18165 12.08744 4009 ft 207 kts 130°
2026-05-06 10:06 42.17344 12.10336 3999 ft 206 kts 130°
2026-05-06 10:06 42.16522 12.11916 3956 ft 207 kts 130°
2026-05-06 10:07 42.15505 12.13222 3716 ft 199 kts 156°
2026-05-06 10:07 42.14226 12.13761 3616 ft 193 kts 170°
2026-05-06 10:07 42.12932 12.14198 3522 ft 191 kts 168°
2026-05-06 10:07 42.11668 12.14720 3427 ft 189 kts 166°
2026-05-06 10:08 42.10416 12.15259 3334 ft 189 kts 166°
2026-05-06 10:08 42.09158 12.15794 3227 ft 190 kts 165°
2026-05-06 10:08 42.07893 12.16327 3074 ft 190 kts 166°
2026-05-06 10:08 42.06639 12.16853 2988 ft 188 kts 166°
2026-05-06 10:09 42.05396 12.17376 2968 ft 188 kts 165°
2026-05-06 10:09 42.04137 12.17909 2985 ft 191 kts 165°
2026-05-06 10:09 42.02861 12.18447 2925 ft 193 kts 165°
2026-05-06 10:09 42.01583 12.18982 2900 ft 191 kts 165°
2026-05-06 10:10 42.00320 12.19501 2796 ft 188 kts 166°
2026-05-06 10:10 41.99090 12.20012 2662 ft 184 kts 165°
2026-05-06 10:10 41.97879 12.20530 2581 ft 179 kts 165°
2026-05-06 10:10 41.96731 12.21025 2445 ft 166 kts 165°
2026-05-06 10:11 41.95659 12.21478 2347 ft 158 kts 165°
2026-05-06 10:11 41.94635 12.21911 2161 ft 148 kts 165°
2026-05-06 10:11 41.93699 12.22306 1902 ft 135 kts 165°
2026-05-06 10:11 41.92825 12.22670 1734 ft 129 kts 165°
2026-05-06 10:12 41.91955 12.23037 1600 ft 135 kts 164°
2026-05-06 10:12 41.91041 12.23425 1426 ft 140 kts 163°
2026-05-06 10:12 41.90110 12.23821 1210 ft 141 kts 163°
2026-05-06 10:12 41.89190 12.24211 1000 ft 136 kts 162°
2026-05-06 10:13 41.88308 12.24577 800 ft 130 kts 163°
2026-05-06 10:13 41.87416 12.24956 728 ft 139 kts 163°
2026-05-06 10:13 41.86459 12.25370 572 ft 147 kts 163°
2026-05-06 10:13 41.85500 12.25787 324 ft 140 kts 163°
2026-05-06 10:14 41.84592 12.26156 91 ft 133 kts 162°
2026-05-06 10:14 41.83783 12.26488 25 ft 102 kts 161°
2026-05-06 10:14 41.83249 12.26717 18 ft 63 kts 164°
2026-05-06 10:14 41.82926 12.26847 18 ft 36 kts 165°
2026-05-06 10:15 41.82685 12.26864 16 ft 35 kts 187°
2026-05-06 10:15 41.82508 12.26812 16 ft 21 kts 191°
2026-05-06 10:15 41.82355 12.26782 16 ft 23 kts 175°
2026-05-06 10:15 41.82195 12.26834 16 ft 24 kts 163°
2026-05-06 10:16 41.82028 12.26902 18 ft 26 kts 162°
2026-05-06 10:16 41.81852 12.26947 16 ft 26 kts 189°
2026-05-06 10:16 41.81667 12.26924 15 ft 27 kts 163°
2026-05-06 10:16 41.81486 12.26992 15 ft 27 kts 162°
2026-05-06 10:17 41.81326 12.27061 16 ft 14 kts 162°
2026-05-06 10:17 41.81216 12.27107 16 ft 19 kts 162°
2026-05-06 10:17 41.81079 12.27166 17 ft 23 kts 161°
2026-05-06 10:17 41.80938 12.27222 18 ft 19 kts 165°
2026-05-06 10:18 41.80813 12.27273 18 ft 16 kts 162°
2026-05-06 10:18 41.80693 12.27268 20 ft 20 kts 215°
2026-05-06 10:18 41.80618 12.27092 21 ft 25 kts 250°
2026-05-06 10:18 41.80562 12.26885 19 ft 11 kts 249°
2026-05-06 10:19 41.80526 12.26759 21 ft 18 kts 249°
2026-05-06 10:19 41.80476 12.26579 24 ft 24 kts 249°
2026-05-06 10:19 41.80418 12.26373 22 ft 15 kts 251°
2026-05-06 10:19 41.80379 12.26223 21 ft 19 kts 250°
2026-05-06 10:20 41.80328 12.26039 22 ft 23 kts 249°
2026-05-06 10:20 41.80270 12.25821 21 ft 26 kts 250°
2026-05-06 10:20 41.80230 12.25676 19 ft 16 kts 249°
2026-05-06 10:20 41.80185 12.25518 23 ft 20 kts 249°
2026-05-06 10:21 41.80130 12.25332 21 ft 15 kts 248°
2026-05-06 10:21 41.80102 12.25246 22 ft 16 kts 242°
2026-05-06 10:21 41.80005 12.25149 21 ft 19 kts 205°
2026-05-06 10:21 41.79956 12.25120 22 ft 3 kts 200°
2026-05-06 10:22 41.79925 12.25127 21 ft 6 kts 153°
2026-05-06 10:22 41.79906 12.25178 22 ft 6 kts 97°
2026-05-06 10:22 41.79899 12.25201 23 ft 0 kts 116°
2026-05-06 10:22 41.79898 12.25203 23 ft 0 kts 116°